User: anonymous   Login
Location: Taupo
(38.6830°S, 176.0830°E)
Time: 13:54:19
(UTC+13:00)
Language:

Meteor 1-27 - Orbit

View from above orbital plane
View from above orbital plane
View from above satellite
View from above satellite

Ground track
Ground track

The orbit data is extracted from the following two-line orbital elements,

1  9903U 77024A   19080.35631952 -.00000050  00000-0 -36120-4 0  9996
2  9903  81.2510 179.5766 0036759 271.8228  87.8732 14.08230411155461
Epoch (UTC): 21 March 2019 08:33:06
Eccentricity: 0.0036759
inclination: 81.2510°
perigee height: 839 km
apogee height: 892 km
right ascension of ascending node: 179.5766°
argument of perigee: 271.8228°
revolutions per day: 14.08230411
mean anomaly at epoch: 87.8732°
orbit number at epoch: 15546

The dashed part of the orbit path shows where the satellite is in the earth's shadow,  

DLR